Regional Weather Roundup
Issued by NWS Little Rock, AR

Home | Current Version | Previous Version | Graphics & Text | Print | Product List | Glossary On
Versions: 1 2 3 4 5 6 7 8 9 10 11 12 13 14 15 16 17 18 19 20 21 22 23 24 25 26 27 28
000
ASUS44 KLZK 300405
RWRLZK

WEATHER ROUNDUP FOR ARKANSAS
NATIONAL WEATHER SERVICE LITTLE ROCK AR
1100 PM CDT FRI APR 29 2016

NOTE: "FAIR" INDICATES FEW OR NO CLOUDS BELOW 12,000 FEET WITH NO
SIGNIFICANT WEATHER AND/OR OBSTRUCTIONS TO VISIBILITY.

ARZ001-003-010-029-300500-
NORTHWEST ARKANSAS

CITY           SKY/WX    TMP DP  RH WIND       PRES   REMARKS
FAYETTEVILLE   TSTM      64  63  96 SW6       29.76R FOG
FORT SMITH     LGT RAIN  67  63  87 NE10      29.66R
HARRISON       LGT RAIN  61  61 100 SE12      29.79F
BENTONVILLE    CLOUDY    64  61  88 CALM      29.77R
ROGERS         HVY RAIN  63  62  97 CALM      29.78R FOG
SILOAM SPGS    CLOUDY    64  55  72 E9        29.72F THUNDER
HIGHFILL       HVY RAIN  64  64 100 SW8       29.78R FOG
$$

ARZ004-005-016-300500-
NORTH CENTRAL ARKANSAS

CITY           SKY/WX    TMP DP  RH WIND       PRES   REMARKS
BATESVILLE     CLOUDY    64  63  94 N5        29.86F
FLIPPIN        CLOUDY   N/A N/A N/A CALM      29.80S
MTN HOME       HVY RAIN  62  61  96 SE5       29.82S FOG
$$

ARZ040-041-300500-
WEST CENTRAL ARKANSAS

CITY           SKY/WX    TMP DP  RH WIND       PRES   REMARKS
MENA           CLOUDY    68  66  94 NW3       29.72R THUNDER
MOUNT IDA      RAIN      66  64  93 E7        29.68F FOG
$$

ARZ009-017-025-026-028-300500-
NORTHEAST ARKANSAS

CITY           SKY/WX    TMP DP  RH WIND       PRES   REMARKS
CORNING          N/A     63  63 100 NE9       29.88F
JONESBORO      CLOUDY    64  61  90 E5        29.87R
NEWPORT        LGT RAIN  65  65 100 NE5       29.87S
WALNUT RIDGE   CLOUDY    63  59  88 NE6       29.87F
BLYTHEVILLE    CLOUDY    64  59  83 SE7       29.87S
$$

ARZ022-023-033-042-044-300500-
CENTRAL ARKANSAS

CITY           SKY/WX    TMP DP  RH WIND       PRES   REMARKS
LITTLE ROCK    TSTM      67  65  93 E7        29.80F
N LITTLE ROCK    N/A     65  64  97 E5        29.78F
JACKSONVILLE   TSTM      65  65 100 E8        29.80S FOG
SEARCY         CLOUDY    64  64 100 NE7       29.85R
HOT SPRINGS    LGT RAIN  66  64  93 S12G25    29.73F
RUSSELLVILLE   HVY RAIN  65  64  97 E7        29.77F FOG
$$

ARZ036-300500-
EAST ARKANSAS

CITY           SKY/WX    TMP DP  RH WIND       PRES   REMARKS
WEST MEMPHIS   CLOUDY    64  62  93 SE10      29.80F
$$

ARZ050-053-066-070-073-300500-
SOUTHWEST ARKANSAS

CITY           SKY/WX    TMP DP  RH WIND       PRES   REMARKS
ARKADELPHIA    RAIN      68  68 100 SE14      29.74R FOG
CAMDEN         LGT RAIN  66  63  88 SE7       29.78R
TEXARKANA      TSTM      70  67  90 SE23G41   29.64F
EL DORADO      LGT RAIN  68  66  93 E13       29.75F
DE QUEEN       TSTM      67  67 100 NE7G23    29.61F VSB 1/2
$$

ARZ056-057-069-300500-
SOUTHEAST ARKANSAS

CITY           SKY/WX    TMP DP  RH WIND       PRES   REMARKS
PINE BLUFF     TSTM      67  65  93 CALM      29.80S
STUTTGART      CLOUDY    66  63  88 NE6       29.83R
MONTICELLO     RAIN      69  66  90 E6        29.80F

$$






USA.gov is the U.S. government's official web portal to all federal, state and local government web resources and services.